Showing default

DMC 3-FM1, 40715

Orbit data source: Space-Track

DMC 3-FM1, 40715 is a payload satellite owned by DMCii (UK) in SSO that was launched on Fri, 10 Jul 2015 UTC via a PSLV-XL launch vehicle from the Sirharikota (SRI). Payload-class satellites include a variety of spacecraft equipped with specific instruments for various scientific and technological missions. These include communications satellites like Starlink; space stations such as the ISS; scientific satellites like the Hubble; Earth observation satellites from companies like Planet Labs, Umbra, and HawkEye 360; GPS; miniature CubeSats for education and research; and military/defense satellites.

Loading next visibility...
Identifier
40715, 2015-032A
Orbit
SSO
Country
Flag of UKUK
Related business
Manufacturer
SSTL (Astrium)
Mission
Operational Commercial Imaging
Bus & Motor
SSTL-300S1, Unknown motor
Mass
447 kg wet, 435 kg dry
Launch date (UTC)
2015-07-10 (11 years ago)
Launch vehicle
PSLV-XL
Launch site
Sirharikota (SRI)
Object type
Payload
Rocket body
Debris
Shape & HBR
Hept Cyl + Cyl, 1.3 m
Radar Cross Section
2.356 m², Large (>1 m²)

Expand to show TLE details & history
Last TLE update: 9 hours ago

TLE from 9 hours ago
0 DMC 3-FM1
1 40715U 15032A   26145.57620130  .00000397  00000-0  51650-4 0  9990
2 40715  97.6492  11.6344 0006730 119.1303 241.0587 14.85706902586557
Epoch: 2026-05-25T13:49Z
TLE epoch observation values (Epoch: 2026-05-25T13:49:43.792Z)
Latitude
-0.00003°
Longitude
-78.96007°
Altitude
616.684 km
Speed
7.549 km/s
True Right ascension
00h 46m 32s
True Declination
0° 00' 00"
Sunlit
Object was in daylight at epoch
Visualization orbit readout
Latitude
Unknown
Longitude
Unknown
Altitude
Unknown
Speed
Unknown
Apparent Right ascension
Unknown
Apparent Declination
Unknown
Sunlit
N/A
Visualization observer readout
Local Sidereal Time
08:18:07
Azimuth
Unknown
Elevation
Unknown
Doppler factor
Unknown
Orbital elements
Apogee altitude
613.092 km
Perigee altitude
603.688 km
Semi-major axis
6,986.527 km
Eccentricity
0.00067
Inclination
97.6492°
RAAN
11.6344°
Arg. of periapsis
119.1303°
True anomaly
240.99124°
Mean anomaly
241.0587°
Eccentric anomaly
241.02497°
Mean motion
3.71665 °/min
Orbital period
96.86 mins
BSTAR
0.00005165
Loading maneuver chart data...
Computing Atmospheric mass density...
Loading historical data...
Loading historical data...
Loading historical data...
Loading historical data...
Loading historical data...
Loading historical data...
Loading historical data...
Other satellites on launch #32 in the year 2015 (2015-07-10 UTC)

Documentation

Showing up to 5 results
|